Location: Napa Junction
(38.1874°N, 122.2508°W)
Time: 14:08:41
(UTC+00:00)

Cosmos 2322 Rocket - Pass Details

Date: 08 September 2024
Orbit: 831 x 850 km, 71.0° (Epoch: 07 October)

Event Time Altitude Azimuth Distance (km) Brightness Sun altitude
Rises 12:35:38 0° 335° (NNW) 3,416 5.3 -14.1°
Reaches altitude 10° 12:38:06 10° 333° (NNW) 2,474 4.5 -13.7°
Maximum altitude 12:43:45 69° 251° (WSW) 899 2.1 -12.6°
Drops below altitude 10° 12:49:19 10° 169° (SSE) 2,446 4.6 -11.6°
Sets 12:51:45 0° 167° (SSE) 3,374 5.3 -11.1°
